Location: Roah Hook
(42.4840°N, 73.7893°W)
Time: 02:46:52
(UTC+00:00)

Envisat - Pass Details

Date: 11 October 2024
Orbit: 762 x 763 km, 98.3° (Epoch: 04 November)

Event Time Altitude Azimuth Distance (km) Brightness Sun altitude
Rises 09:23:40 0° 358° (N) 3,235 6.3 -19.3°
Reaches altitude 10° 09:26:33 10° 341° (NNW) 2,304 5.4 -18.7°
Enters shadow 09:28:57 18° 314° (NW) 1,814 4.6 -18.3°
